Wind_Speed
5 5 5 4 4 4 3 3 3 3 4 3 3 3 3 2 2 2 1 1 1 2 2 2 3 3 2 3 3 3 3 3 4 5 5 5 5 5 5 6 5 5 5 5 6 6 7 7 8
5 6 5 5 5 5 4 4 4 3 3 3 2 2 2 1 1 2 1 0 1 1 2 2 3 3 3 3 3 3 3 4 4 5 6 6 6 5 5 6 6 6 5 6 6 7 7 7 7
5 6 6 6 6 5 4 4 4 3 2 2 2 1 1 0 0 1 0 1 1 2 2 2 3 4 4 4 4 4 4 4 5 6 6 6 6 6 6 6 7 6 6 6 6 7 7 8 8
5 6 6 6 6 5 5 4 4 3 2 2 1 1 1 1 1 1 1 2 2 3 4 4 4 4 4 5 5 5 5 5 5 6 6 6 6 6 6 7 7 7 7 6 6 7 7 8 9
6 6 6 6 6 6 5 4 3 3 3 3 3 2 2 2 1 2 2 3 3 4 4 4 4 4 5 5 5 5 5 6 6 6 6 6 6 6 6 7 7 7 7 7 6 7 8 8 9
7 7 7 7 7 5 5 4 4 4 4 3 3 3 2 3 2 3 3 4 4 5 5 5 5 5 5 6 6 6 6 6 6 6 6 6 7 7 7 7 7 7 7 7 7 7 8 9 9
7 7 6 7 6 6 5 5 5 4 4 4 4 4 4 4 4 4 5 5 5 5 5 5 5 5 6 6 6 6 6 6 6 6 6 7 7 7 7 7 8 8 8 8 8 8 9 9 10
8 8 7 8 7 6 6 5 5 4 4 5 4 5 5 5 5 6 6 6 7 7 6 6 6 6 6 7 7 7 7 7 7 7 7 7 8 8 7 8 9 9 9 9 9 9 9 10 10
9 9 8 8 8 7 6 5 5 4 4 5 5 6 6 6 6 6 7 7 7 7 7 7 7 7 7 7 7 7 6 7 7 8 8 8 8 9 9 9 9 9 9 9 10 10 11 11 11
9 9 9 9 8 8 7 6 5 5 5 6 6 6 7 7 7 7 8 7 7 6 7 7 7 7 7 7 7 7 7 7 8 8 8 9 9 9 10 10 10 10 9 9 10 10 11 11 11
10 10 9 8 7 7 7 7 6 6 6 7 6 6 6 7 7 7 6 7 7 6 7 7 7 7 7 8 8 8 8 7 8 8 8 9 9 10 10 10 10 10 9 9 9 10 10 11 11
10 9 9 9 8 7 7 7 7 7 7 7 7 7 7 6 6 6 6 6 6 6 6 7 8 8 8 8 8 8 8 8 8 8 9 10 10 10 10 10 10 10 10 10 10 10 10 11 11
10 9 9 9 9 8 8 8 8 8 8 8 7 7 7 7 7 7 7 7 7 7 8 8 8 8 8 8 8 8 8 8 9 9 10 10 10 10 10 11 11 11 11 11 11 10 10 11 11
10 10 9 9 9 9 9 9 8 8 8 8 8 8 7 7 7 7 7 8 8 7 7 8 8 8 8 8 8 8 9 9 10 10 10 10 11 11 11 11 10 10 11 11 11 11 11 11 11
10 10 10 10 9 9 9 9 8 8 9 8 8 8 8 7 8 8 8 8 8 8 8 8 8 9 9 9 9 10 10 10 10 10 11 11 11 11 11 11 11 10 11 11 11 11 11 12 12
10 10 10 10 10 9 9 8 8 8 9 9 9 9 8 8 8 8 8 8 9 9 9 9 9 10 10 10 10 10 11 11 11 11 11 11 11 11 11 11 11 12 12 12 11 12 12 12 13
11 11 10 11 10 10 9 8 9 9 9 9 9 9 9 9 9 9 9 9 10 10 10 10 10 10 10 11 11 11 12 12 12 12 12 12 12 12 12 12 12 12 12 12 12 11 12 13 13
11 11 10 10 10 10 9 9 9 9 9 9 10 10 10 10 10 10 10 10 10 10 11 11 11 11 11 11 12 12 13 13 12 12 12 12 12 12 13 12 12 12 12 12 13 13 13 13 13
11 11 11 11 10 10 10 10 10 10 10 10 10 10 10 11 11 12 11 12 11 11 12 12 12 12 12 13 13 13 13 13 13 12 12 13 13 13 12 13 13 13 13 13 13 14 14 14 14
12 12 11 11 11 11 11 11 11 11 10 10 10 10 10 11 12 12 12 12 12 12 12 12 13 14 14 14 13 13 14 14 14 13 14 14 14 13 13 13 13 13 14 14 14 14 15 15 15
13 12 12 12 11 12 12 11 11 12 11 11 11 11 11 11 12 12 12 12 12 12 12 12 13 13 14 14 14 13 13 14 14 14 14 15 14 14 14 13 13 14 14 14 14 15 15 15 16
13 13 13 12 12 12 13 11 11 12 11 11 11 11 12 12 12 12 12 12 13 13 13 13 13 13 14 14 13 13 13 14 14 15 15 15 15 15 14 14 15 14 14 15 15 16 16 17 17
12 13 13 13 13 13 13 13 11 11 11 10 11 12 12 12 12 12 12 13 13 14 14 14 14 15 15 14 14 14 14 15 15 15 16 16 15 15 15 15 15 15 15 15 16 16 17 17 18
13 13 14 14 14 14 14 14 11 11 11 11 12 12 12 12 11 12 13 13 14 14 14 15 15 16 16 15 15 15 15 16 16 16 16 15 15 15 15 15 15 16 16 16 16 17 17 18 18
14 14 15 15 15 14 14 15 13 12 12 12 12 12 12 12 12 13 13 14 15 15 15 15 16 16 16 16 17 17 17 16 16 16 16 16 15 15 16 16 16 16 16 16 17 18 18 19 18
15 15 16 16 16 14 15 16 14 13 13 13 13 13 13 13 13 13 14 15 15 16 16 17 17 17 18 18 19 18 17 16 16 16 17 17 16 16 17 17 16 16 16 17 17 18 19 19 18
15 16 16 17 17 16 16 16 16 15 14 14 14 14 14 15 15 15 15 16 17 18 18 18 18 19 19 19 19 19 18 18 18 18 18 18 18 18 17 17 17 17 18 18 18 19 19 19 18
16 16 17 18 19 19 18 17 17 16 16 16 16 15 16 16 17 17 17 17 18 19 19 19 19 19 20 20 20 20 20 19 20 20 19 19 19 19 19 18 18 18 18 19 19 19 19 19 18
18 18 19 20 20 20 20 18 17 18 18 19 18 17 17 17 18 18 18 18 19 20 21 21 21 21 21 21 21 21 21 21 21 21 21 21 20 20 20 19 19 19 19 19 19 20 19 19 19
20 20 21 22 22 22 22 20 18 20 20 20 20 19 19 19 19 19 20 20 20 21 22 22 22 21 21 21 21 22 22 22 21 22 22 21 21 21 21 21 21 21 20 20 20 21 21 21 20
Wind_Direction
185 178 170 166 172 173 166 164 153 140 129 114 103 100 94 93 87 89 78 87 67 46 32 17 4 6 351 342 330 326 320 312 315 310 297 298 295 287 290 294 293 290 276 252 248 248 251 249 249
191 188 186 183 188 188 181 171 156 146 138 128 111 104 98 86 81 90 87 42 26 21 9 351 341 339 331 327 323 310 307 302 304 306 303 300 295 289 290 292 294 290 282 267 257 254 256 255 255
192 198 200 198 202 200 192 186 175 170 156 143 137 124 116 163 137 109 65 337 333 331 332 321 318 316 315 317 317 311 301 302 304 307 307 301 292 287 287 292 294 293 285 272 261 261 260 258 257
207 207 212 215 213 210 206 197 192 193 188 193 194 202 237 247 247 255 273 293 304 310 311 307 307 310 310 312 309 303 295 296 298 303 303 300 297 291 290 292 291 292 288 278 271 265 262 262 259
218 218 218 220 223 219 218 212 201 194 204 221 225 237 250 261 273 284 285 291 296 301 307 306 304 307 308 308 310 303 297 292 294 301 305 302 298 297 297 294 292 289 290 286 281 273 268 264 263
228 227 223 226 226 225 222 217 213 212 216 223 236 241 250 268 281 286 294 291 292 294 296 301 300 302 300 303 305 308 304 298 294 296 300 304 302 301 299 300 299 297 295 292 287 280 277 274 270
229 231 232 231 229 231 228 227 229 228 238 245 249 255 263 274 284 288 293 296 294 290 289 292 297 297 296 296 298 298 298 299 296 296 297 300 303 305 302 300 299 296 294 293 287 281 279 277 273
233 238 238 235 235 235 232 235 241 245 250 253 257 263 271 277 284 286 287 288 286 283 283 283 285 287 287 290 292 292 293 294 295 298 301 299 302 302 303 300 299 294 290 288 286 284 280 279 277
235 238 241 242 241 239 236 239 245 244 252 263 265 266 273 280 287 289 283 282 281 282 283 284 287 286 287 290 293 294 294 294 295 297 301 304 301 304 303 303 301 296 291 286 282 283 283 282 280
236 238 243 248 245 244 242 244 250 254 258 265 271 271 272 279 285 286 286 283 283 281 282 283 286 289 287 288 289 291 292 292 292 295 300 301 302 303 300 298 298 296 291 285 283 284 282 282 280
238 239 243 246 245 248 247 248 253 259 261 265 269 273 277 281 283 285 285 283 282 279 281 286 288 292 292 289 286 287 291 292 292 296 301 302 302 299 298 296 293 293 294 294 294 295 287 284 283
238 239 243 245 249 250 250 252 255 259 262 266 269 273 282 285 289 286 289 283 280 286 291 289 290 293 293 290 287 290 295 295 293 295 298 300 300 299 297 294 292 293 293 292 296 299 296 291 288
238 239 245 246 244 251 254 256 258 261 261 263 268 276 285 289 291 289 287 285 288 292 292 294 295 297 294 290 287 286 288 290 292 294 296 298 299 299 298 295 292 291 291 290 292 297 297 294 290
239 239 242 248 250 252 257 258 260 259 259 259 265 273 280 284 285 287 291 293 294 294 295 298 297 296 291 285 283 286 288 288 291 292 293 297 300 300 298 296 294 292 292 292 293 293 294 291 289
238 239 242 247 251 255 260 260 258 258 259 259 264 270 273 275 278 282 289 294 295 295 297 299 297 297 293 289 287 287 286 287 289 291 293 295 297 298 296 294 293 292 292 293 291 287 289 292 290
237 239 242 246 250 255 260 261 256 256 257 261 264 268 273 274 275 280 285 290 291 291 293 296 297 299 297 295 293 291 289 289 290 291 292 293 294 295 294 292 290 290 290 289 290 285 287 289 291
238 240 241 245 250 255 259 260 259 256 256 261 266 270 272 274 275 279 282 284 286 288 290 293 295 295 294 294 293 291 290 290 290 291 292 293 294 295 294 291 289 289 289 288 289 292 291 290 291
240 241 243 247 251 255 260 261 261 262 263 265 268 270 272 273 274 276 279 282 282 284 286 289 291 292 292 292 292 290 290 290 290 291 293 293 294 294 292 291 290 289 288 288 288 290 292 292 294
242 244 245 248 249 254 260 264 262 264 265 266 268 269 270 273 276 277 278 280 282 281 281 286 289 290 293 294 293 293 291 291 291 291 292 293 293 294 295 293 290 288 288 289 288 288 291 293 296
241 243 245 251 255 259 259 260 260 263 264 264 266 269 271 275 276 278 278 278 280 281 280 282 287 288 290 291 291 293 290 290 290 290 291 291 291 291 292 291 291 291 289 290 289 288 291 293 296
240 244 248 255 254 258 258 257 257 261 264 263 265 269 273 276 275 275 278 279 279 279 282 284 285 286 288 287 289 291 290 290 290 291 291 291 290 288 289 290 291 290 289 289 290 290 292 294 297
242 248 251 253 255 259 261 259 256 262 265 266 265 270 274 277 276 276 278 281 280 279 280 281 282 283 285 286 287 290 293 292 291 291 290 289 288 287 287 290 291 290 290 289 290 291 292 295 296
246 248 251 255 257 260 263 263 256 261 263 265 268 273 275 275 274 275 278 280 281 281 280 280 280 281 282 285 290 289 290 290 290 290 290 290 290 287 288 291 291 291 290 291 291 292 293 294 295
244 247 250 255 258 259 260 265 262 262 265 266 270 275 278 279 276 276 277 278 281 282 281 279 280 281 282 284 287 288 288 289 289 290 290 291 291 290 291 290 290 290 289 290 292 294 295 295 296
244 246 250 253 254 257 261 267 270 270 272 274 275 278 280 281 281 280 278 279 281 281 281 280 280 281 282 283 285 286 285 287 288 288 289 290 290 290 290 290 290 289 288 289 292 295 297 297 296
246 248 251 254 255 256 259 266 271 272 275 277 278 280 280 280 279 279 280 280 280 281 281 281 281 281 280 278 280 282 282 284 285 286 286 288 288 287 287 288 288 288 288 288 291 295 297 299 296
248 251 253 256 259 260 260 265 269 272 275 277 279 281 284 283 283 282 282 281 281 281 282 281 280 281 281 280 280 280 281 282 282 283 285 286 286 286 286 286 285 286 288 289 291 294 296 298 298
251 255 254 255 262 265 263 264 269 271 274 276 279 280 284 284 283 284 283 281 281 281 281 280 280 280 281 280 280 280 280 281 281 281 284 286 285 284 284 286 285 286 288 289 291 292 294 295 296
248 250 254 257 262 265 268 267 270 271 272 274 276 279 281 282 282 282 282 282 282 281 280 280 280 279 278 278 278 279 281 282 281 282 282 284 284 283 284 285 285 286 288 290 291 291 292 293 294
251 252 254 258 261 265 269 268 268 269 271 272 275 277 279 279 280 282 283 283 282 281 281 281 279 278 277 277 278 279 280 281 281 280 280 282 283 283 285 285 284 284 286 288 290 291 291 291 292
Height
5879 5879 5880 5881 5882 5881 5881 5881 5881 5881 5881 5881 5881 5881 5882 5882 5883 5885 5882 5880 5881 5880 5880 5880 5879 5879 5878 5878 5877 5877 5876 5876 5876 5875 5874 5874 5873 5873 5872 5871 5870 5868 5868 5867 5868 5868 5869 5869 5869
5878 5879 5880 5881 5881 5881 5881 5880 5880 5881 5881 5881 5881 5881 5881 5881 5882 5882 5881 5880 5880 5880 5880 5879 5879 5879 5878 5878 5877 5877 5876 5876 5875 5874 5874 5873 5872 5872 5871 5870 5869 5868 5868 5867 5867 5867 5868 5868 5868
5878 5879 5880 5880 5880 5880 5881 5880 5880 5880 5880 5881 5881 5881 5881 5881 5881 5881 5881 5880 5880 5880 5879 5879 5879 5878 5878 5877 5877 5876 5876 5875 5874 5874 5873 5872 5871 5871 5870 5869 5869 5868 5867 5866 5866 5866 5866 5866 5867
5877 5879 5879 5879 5879 5879 5880 5880 5880 5880 5880 5881 5881 5881 5881 5881 5881 5881 5880 5880 5879 5879 5879 5879 5878 5878 5877 5876 5876 5875 5875 5874 5873 5873 5872 5871 5870 5870 5869 5868 5868 5867 5866 5866 5865 5865 5864 5864 5865
5877 5878 5878 5878 5878 5879 5879 5879 5880 5880 5880 5880 5880 5880 5880 5880 5880 5880 5879 5879 5879 5878 5878 5878 5877 5877 5876 5876 5875 5874 5874 5873 5872 5872 5871 5870 5869 5869 5868 5867 5867 5866 5865 5864 5864 5863 5863 5863 5863
5876 5877 5878 5877 5877 5878 5878 5878 5879 5879 5879 5879 5879 5879 5879 5879 5879 5878 5878 5878 5878 5877 5877 5877 5876 5876 5875 5875 5874 5873 5873 5872 5871 5870 5870 5869 5868 5868 5867 5866 5865 5865 5864 5863 5862 5862 5861 5861 5861
5876 5876 5876 5876 5876 5877 5877 5877 5878 5878 5878 5878 5878 5878 5878 5878 5878 5877 5877 5877 5876 5876 5876 5875 5875 5875 5874 5873 5873 5872 5871 5871 5870 5869 5868 5868 5867 5866 5865 5865 5864 5863 5862 5861 5861 5860 5859 5859 5859
5874 5875 5875 5875 5875 5876 5876 5876 5876 5877 5877 5877 5877 5877 5877 5877 5877 5876 5875 5875 5875 5875 5874 5874 5873 5873 5873 5872 5871 5871 5870 5869 5868 5868 5867 5866 5866 5865 5864 5863 5862 5862 5861 5860 5859 5858 5857 5857 5857
5873 5874 5873 5873 5874 5874 5875 5875 5875 5876 5876 5876 5876 5876 5876 5875 5875 5874 5874 5874 5873 5873 5873 5873 5872 5871 5871 5870 5870 5869 5868 5868 5867 5866 5865 5864 5864 5863 5862 5861 5861 5860 5859 5858 5857 5856 5855 5855 5854
5871 5872 5872 5872 5872 5872 5873 5873 5874 5874 5874 5874 5874 5874 5874 5874 5873 5873 5872 5872 5872 5871 5871 5871 5870 5870 5869 5869 5868 5867 5867 5866 5865 5864 5864 5863 5862 5861 5860 5860 5859 5857 5856 5855 5854 5854 5853 5852 5852
5869 5870 5870 5870 5870 5870 5871 5872 5872 5872 5872 5872 5872 5872 5872 5872 5872 5871 5870 5870 5870 5870 5870 5869 5868 5868 5867 5867 5866 5865 5865 5864 5864 5863 5862 5861 5860 5859 5858 5857 5857 5856 5854 5853 5852 5851 5850 5850 5849
5868 5868 5868 5868 5868 5869 5869 5870 5870 5870 5871 5871 5871 5870 5870 5870 5870 5869 5869 5868 5868 5868 5868 5868 5867 5866 5865 5865 5864 5864 5863 5862 5862 5861 5860 5859 5858 5857 5856 5855 5854 5853 5852 5851 5850 5849 5848 5847 5846
5866 5866 5866 5866 5866 5867 5868 5868 5868 5869 5868 5868 5868 5868 5868 5868 5867 5867 5867 5866 5866 5866 5866 5865 5865 5864 5864 5863 5862 5861 5861 5860 5859 5859 5858 5857 5856 5855 5854 5853 5852 5851 5850 5849 5848 5847 5846 5845 5844
5863 5864 5864 5864 5864 5865 5866 5866 5867 5867 5866 5866 5866 5866 5866 5866 5865 5865 5865 5865 5864 5863 5863 5863 5862 5862 5861 5860 5860 5859 5858 5858 5857 5856 5855 5854 5853 5852 5851 5850 5849 5848 5847 5846 5845 5844 5843 5843 5841
5861 5862 5862 5862 5862 5863 5864 5864 5864 5864 5864 5864 5864 5864 5864 5864 5864 5863 5863 5862 5862 5861 5861 5861 5860 5859 5859 5858 5857 5857 5856 5855 5854 5854 5853 5852 5851 5849 5848 5848 5846 5846 5845 5844 5842 5841 5841 5840 5839
5858 5859 5860 5860 5860 5860 5863 5862 5862 5862 5862 5862 5862 5862 5862 5862 5862 5861 5861 5860 5860 5859 5859 5858 5858 5857 5856 5856 5855 5854 5853 5853 5852 5851 5850 5849 5848 5847 5846 5845 5844 5843 5842 5841 5840 5839 5838 5837 5836
5856 5857 5857 5858 5857 5858 5859 5859 5859 5859 5859 5859 5859 5859 5859 5859 5859 5859 5858 5858 5857 5857 5856 5856 5855 5854 5853 5853 5852 5851 5850 5850 5849 5848 5847 5846 5845 5843 5842 5842 5841 5840 5839 5838 5837 5836 5835 5833 5832
5853 5854 5854 5855 5855 5855 5856 5857 5857 5856 5857 5856 5857 5857 5857 5857 5857 5856 5856 5855 5855 5855 5854 5853 5852 5852 5851 5850 5849 5848 5847 5847 5846 5845 5844 5842 5841 5840 5839 5838 5837 5836 5835 5834 5834 5833 5832 5830 5829
5850 5851 5851 5852 5852 5853 5853 5853 5854 5854 5854 5854 5854 5854 5854 5854 5853 5853 5853 5853 5852 5852 5851 5851 5850 5849 5848 5847 5846 5845 5844 5843 5843 5842 5841 5839 5838 5837 5836 5835 5834 5833 5832 5831 5830 5829 5828 5827 5825
5847 5848 5848 5849 5849 5850 5850 5851 5851 5851 5851 5851 5851 5851 5851 5851 5850 5850 5850 5850 5849 5849 5848 5848 5847 5846 5845 5844 5843 5842 5841 5840 5839 5838 5837 5836 5835 5834 5833 5832 5831 5829 5828 5827 5826 5825 5824 5823 5822
5844 5845 5846 5846 5846 5846 5847 5848 5848 5847 5847 5848 5848 5848 5848 5847 5847 5847 5847 5846 5846 5845 5845 5844 5843 5843 5842 5840 5839 5839 5838 5837 5836 5835 5834 5833 5831 5830 5829 5828 5827 5826 5825 5824 5823 5822 5820 5819 5818
5841 5842 5842 5843 5843 5843 5844 5844 5845 5844 5844 5844 5844 5844 5844 5844 5844 5843 5843 5843 5842 5842 5841 5841 5840 5839 5838 5837 5836 5835 5835 5834 5833 5831 5830 5829 5827 5826 5825 5824 5823 5822 5821 5820 5819 5818 5816 5815 5813
5838 5839 5839 5839 5839 5840 5840 5840 5842 5841 5841 5841 5841 5841 5840 5840 5840 5840 5839 5839 5839 5838 5837 5837 5836 5836 5835 5834 5833 5832 5831 5830 5829 5828 5826 5825 5823 5822 5821 5820 5819 5818 5817 5816 5814 5813 5812 5810 5809
5835 5835 5836 5835 5836 5837 5837 5837 5838 5838 5838 5838 5838 5837 5837 5837 5836 5836 5836 5835 5835 5834 5834 5833 5833 5832 5831 5830 5829 5828 5827 5826 5825 5824 5822 5821 5819 5818 5817 5816 5815 5813 5812 5811 5810 5809 5807 5806 5804
5831 5832 5832 5832 5832 5833 5833 5833 5835 5834 5834 5834 5834 5834 5833 5833 5833 5833 5832 5831 5831 5830 5830 5829 5829 5828 5827 5826 5825 5824 5823 5822 5821 5819 5818 5817 5815 5814 5813 5812 5810 5809 5808 5807 5806 5804 5803 5801 5799
5827 5828 5829 5829 5829 5829 5829 5828 5830 5830 5830 5829 5829 5829 5829 5829 5829 5828 5828 5827 5826 5826 5825 5825 5824 5823 5822 5821 5821 5820 5819 5817 5816 5815 5814 5813 5811 5810 5808 5807 5806 5805 5803 5802 5801 5799 5798 5796 5794
5823 5824 5825 5825 5824 5825 5825 5825 5826 5825 5825 5825 5825 5825 5825 5824 5824 5824 5823 5823 5822 5821 5820 5819 5819 5818 5817 5816 5815 5815 5813 5812 5811 5810 5809 5808 5806 5805 5804 5803 5801 5800 5799 5797 5796 5794 5793 5791 5789
5819 5820 5820 5820 5819 5819 5820 5821 5822 5821 5821 5821 5821 5821 5821 5820 5819 5819 5819 5818 5817 5816 5815 5814 5813 5813 5812 5811 5810 5809 5808 5807 5806 5804 5803 5802 5801 5800 5799 5798 5796 5795 5794 5792 5791 5789 5787 5786 5784
5814 5815 5814 5815 5815 5815 5815 5819 5817 5817 5816 5816 5816 5816 5816 5815 5815 5814 5813 5813 5812 5811 5810 5809 5808 5807 5806 5805 5804 5803 5802 5801 5800 5799 5798 5797 5796 5794 5793 5792 5791 5790 5788 5787 5785 5784 5782 5780 5779
5809 5810 5810 5810 5810 5810 5810 5814 5812 5811 5811 5811 5811 5811 5811 5810 5810 5809 5808 5807 5806 5805 5804 5803 5802 5801 5800 5799 5798 5797 5796 5795 5794 5793 5792 5791 5790 5788 5787 5786 5785 5784 5783 5781 5780 5778 5776 5775 5773